timestamp,wind_dir_avg,wind_spd_avg,wind_spd_max_dir,wind_spd_gust,battery_voltage,lat,long
2024-03-23 00:04:00+00:00,231.0,11.56,224.0,13.19,12.25,47.59359,-54.27349
2024-03-23 00:14:00+00:00,241.0,10.38,236.0,11.43,12.17,47.59359,-54.27349
2024-03-23 00:24:00+00:00,235.0,11.0,237.0,11.53,12.17,47.59359,-54.27349
2024-03-23 00:34:00+00:00,240.0,10.72,243.0,11.0,12.17,47.59359,-54.27349
2024-03-23 00:44:00+00:00,240.0,10.29,237.0,11.55,12.17,47.59359,-54.27349
2024-03-23 00:54:00+00:00,236.0,10.44,236.0,11.33,12.17,47.59359,-54.27349
2024-03-23 01:04:00+00:00,255.0,15.17,251.0,18.74,12.17,47.59359,-54.27349
2024-03-23 01:14:00+00:00,238.0,11.52,242.0,16.28,12.17,47.59359,-54.27349
2024-03-23 01:24:00+00:00,245.0,14.89,251.0,15.73,12.17,47.59359,-54.27349
2024-03-23 01:34:00+00:00,246.0,15.22,248.0,15.82,12.17,47.59359,-54.27349
2024-03-23 01:44:00+00:00,238.0,11.35,253.0,14.03,12.17,47.59359,-54.27349
2024-03-23 01:54:00+00:00,241.0,15.25,240.0,17.04,12.17,47.59359,-54.27349
2024-03-23 02:04:00+00:00,243.0,10.64,240.0,10.97,12.17,47.59359,-54.27349
2024-03-23 02:14:00+00:00,241.0,15.27,234.0,16.49,12.17,47.59359,-54.27349
2024-03-23 02:24:00+00:00,252.0,14.07,255.0,15.91,12.17,47.59359,-54.27349
2024-03-23 02:34:00+00:00,249.0,14.69,250.0,14.71,12.17,47.59359,-54.27349
2024-03-23 02:44:00+00:00,246.0,8.96,246.0,10.5,12.17,47.59359,-54.27349
2024-03-23 02:54:00+00:00,248.0,9.29,240.0,10.49,12.17,47.59359,-54.27349
2024-03-23 03:04:00+00:00,246.0,10.33,245.0,10.74,12.17,47.59359,-54.27349
2024-03-23 03:14:00+00:00,243.0,10.11,240.0,10.35,12.17,47.59359,-54.27349
2024-03-23 03:24:00+00:00,243.0,10.28,231.0,11.39,12.17,47.59359,-54.27349
2024-03-23 03:34:00+00:00,255.0,13.92,252.0,15.56,12.17,47.59359,-54.27349
2024-03-23 03:44:00+00:00,250.0,15.41,255.0,19.16,12.17,47.59359,-54.27349
2024-03-23 03:54:00+00:00,246.0,13.97,247.0,16.26,12.17,47.59359,-54.27349
2024-03-23 04:04:00+00:00,248.0,15.38,243.0,16.53,12.17,47.59359,-54.27349
2024-03-23 04:14:00+00:00,249.0,16.26,253.0,19.8,12.09,47.59359,-54.27349
2024-03-23 04:24:00+00:00,244.0,14.3,248.0,15.3,12.09,47.59359,-54.27349
2024-03-23 04:34:00+00:00,252.0,12.38,261.0,14.96,12.09,47.59359,-54.27349
2024-03-23 04:44:00+00:00,239.0,10.83,236.0,11.4,12.09,47.59359,-54.27349
2024-03-23 04:54:00+00:00,237.0,12.55,240.0,16.78,12.09,47.59359,-54.27349
2024-03-23 05:04:00+00:00,244.0,15.4,239.0,16.23,12.09,47.59359,-54.27349
2024-03-23 05:14:00+00:00,241.0,14.76,240.0,16.78,12.09,47.59359,-54.27349
2024-03-23 05:24:00+00:00,262.0,17.82,261.0,21.2,12.09,47.59359,-54.27349
2024-03-23 05:34:00+00:00,253.0,14.83,253.0,16.12,12.09,47.59359,-54.27349
2024-03-23 05:44:00+00:00,256.0,14.75,256.0,16.75,12.09,47.59359,-54.27349
2024-03-23 05:54:00+00:00,254.0,14.57,255.0,15.78,12.09,47.59359,-54.27349
2024-03-23 06:04:00+00:00,255.0,14.12,248.0,16.12,12.09,47.59359,-54.27349
2024-03-23 06:14:00+00:00,268.0,15.52,273.0,17.26,12.09,47.59359,-54.27349
2024-03-23 06:24:00+00:00,258.0,9.63,252.0,10.01,12.09,47.59359,-54.27349
2024-03-23 06:34:00+00:00,267.0,14.67,265.0,15.28,12.09,47.59359,-54.27349
2024-03-23 06:44:00+00:00,261.0,14.8,262.0,15.62,12.09,47.59359,-54.27349
2024-03-23 06:54:00+00:00,258.0,9.65,254.0,10.22,12.09,47.59359,-54.27349
2024-03-23 07:04:00+00:00,315.0,0.01,262.0,0.0,12.09,47.59359,-54.27349
2024-03-23 07:14:00+00:00,252.0,13.18,253.0,15.76,12.09,47.59359,-54.27349
2024-03-23 07:24:00+00:00,263.0,15.45,264.0,20.95,12.09,47.59359,-54.27349
2024-03-23 07:34:00+00:00,315.0,0.01,250.0,0.0,12.09,47.59359,-54.27349
2024-03-23 07:44:00+00:00,261.0,14.41,265.0,15.19,12.09,47.59359,-54.27349
2024-03-23 07:54:00+00:00,260.0,14.68,255.0,15.99,12.09,47.59359,-54.27349
2024-03-23 08:04:00+00:00,263.0,15.63,263.0,19.54,12.09,47.59359,-54.27349
2024-03-23 08:14:00+00:00,257.0,18.36,253.0,21.91,12.09,47.59359,-54.27349
2024-03-23 08:24:00+00:00,264.0,18.43,263.0,20.93,12.09,47.59359,-54.27349
2024-03-23 08:34:00+00:00,257.0,16.66,258.0,21.52,12.09,47.59359,-54.27349
2024-03-23 08:44:00+00:00,259.0,16.53,268.0,20.59,12.09,47.59359,-54.27349
2024-03-23 08:54:00+00:00,263.0,15.77,266.0,21.29,12.09,47.59359,-54.27349
2024-03-23 09:04:00+00:00,262.0,16.25,268.0,20.74,12.09,47.59359,-54.27349
2024-03-23 09:14:00+00:00,258.0,17.4,258.0,21.25,12.01,47.59359,-54.27349
2024-03-23 09:24:00+00:00,261.0,18.15,264.0,21.12,12.01,47.59359,-54.27349
2024-03-23 09:34:00+00:00,258.0,17.33,254.0,21.67,12.01,47.59359,-54.27349
2024-03-23 09:44:00+00:00,253.0,11.93,254.0,14.29,12.01,47.59359,-54.27349
2024-03-23 09:54:00+00:00,255.0,14.94,256.0,17.19,12.01,47.59359,-54.27349
2024-03-23 10:04:00+00:00,253.0,15.22,253.0,16.18,12.01,47.59359,-54.27349
2024-03-23 10:14:00+00:00,256.0,15.67,260.0,19.55,12.01,47.59359,-54.27349
2024-03-23 10:24:00+00:00,256.0,14.28,254.0,15.3,12.01,47.59359,-54.27349
2024-03-23 10:34:00+00:00,260.0,14.3,261.0,14.65,12.01,47.59359,-54.27349
2024-03-23 10:44:00+00:00,258.0,15.31,262.0,20.36,12.01,47.59359,-54.27349
2024-03-23 10:54:00+00:00,251.0,15.07,249.0,16.03,12.01,47.59359,-54.27349
2024-03-23 11:04:00+00:00,259.0,14.11,259.0,14.43,12.01,47.59359,-54.27349
2024-03-23 11:14:00+00:00,256.0,14.64,260.0,15.62,12.17,47.59359,-54.27349
2024-03-23 11:24:00+00:00,254.0,15.76,252.0,21.42,12.17,47.59359,-54.27349
2024-03-23 11:34:00+00:00,254.0,14.89,254.0,15.89,12.17,47.59359,-54.27349
2024-03-23 11:44:00+00:00,257.0,15.22,258.0,19.85,12.17,47.59359,-54.27349
2024-03-23 11:54:00+00:00,315.0,0.01,249.0,0.0,12.17,47.59359,-54.27349
2024-03-23 12:04:00+00:00,253.0,15.35,248.0,17.56,12.17,47.59359,-54.27349
2024-03-23 12:14:01+00:00,251.0,15.63,251.0,17.84,12.81,47.59359,-54.27349
2024-03-23 12:24:01+00:00,255.0,14.5,255.0,14.89,12.81,47.59359,-54.27349
2024-03-23 12:34:01+00:00,253.0,9.61,254.0,9.62,12.81,47.59359,-54.27349
2024-03-23 12:44:01+00:00,258.0,9.68,258.0,9.69,12.81,47.59359,-54.27349
2024-03-23 12:54:01+00:00,315.0,0.01,246.0,0.0,12.81,47.59359,-54.27349
2024-03-23 13:04:01+00:00,315.0,0.01,273.0,0.0,12.81,47.59359,-54.27349
2024-03-23 13:14:00+00:00,315.0,0.01,274.0,0.0,13.37,47.59359,-54.27349
2024-03-23 13:24:00+00:00,271.0,15.72,272.0,20.63,13.37,47.59359,-54.27349
2024-03-23 13:34:00+00:00,271.0,14.96,272.0,14.98,13.37,47.59359,-54.27349
2024-03-23 13:44:00+00:00,265.0,14.45,267.0,15.45,13.37,47.59359,-54.27349
2024-03-23 13:54:00+00:00,258.0,14.59,259.0,15.76,13.37,47.59359,-54.27349
2024-03-23 14:04:00+00:00,262.0,14.1,263.0,14.36,13.37,47.59359,-54.27349
2024-03-23 14:14:00+00:00,260.0,12.46,259.0,14.35,13.6,47.59359,-54.27349
2024-03-23 14:24:00+00:00,315.0,0.01,257.0,0.0,13.6,47.59359,-54.27349
2024-03-23 14:34:00+00:00,264.0,14.08,264.0,14.49,13.6,47.59359,-54.27349
2024-03-23 14:44:00+00:00,269.0,14.02,269.0,14.32,13.6,47.59359,-54.27349
2024-03-23 14:54:00+00:00,261.0,14.36,261.0,14.51,13.6,47.59359,-54.27349
2024-03-23 15:04:00+00:00,257.0,9.43,255.0,9.87,13.6,47.59359,-54.27349
2024-03-23 15:14:00+00:00,259.0,12.83,263.0,18.06,13.6,47.59359,-54.27349
2024-03-23 15:24:00+00:00,261.0,14.67,262.0,15.4,13.6,47.59359,-54.27349
2024-03-23 15:34:00+00:00,251.0,9.67,251.0,9.69,13.6,47.59359,-54.27349
2024-03-23 15:44:00+00:00,261.0,15.03,261.0,16.67,13.6,47.59359,-54.27349
2024-03-23 15:54:00+00:00,263.0,14.51,263.0,15.55,13.6,47.59359,-54.27349
2024-03-23 16:04:00+00:00,252.0,15.43,255.0,16.48,13.6,47.59359,-54.27349
2024-03-23 16:14:00+00:00,265.0,15.59,264.0,18.82,13.53,47.59359,-54.27349
2024-03-23 16:24:00+00:00,260.0,16.04,265.0,20.43,13.53,47.59359,-54.27349
2024-03-23 16:34:00+00:00,264.0,14.58,261.0,15.28,13.53,47.59359,-54.27349
2024-03-23 16:44:00+00:00,256.0,14.54,256.0,14.97,13.53,47.59359,-54.27349
2024-03-23 16:54:00+00:00,258.0,15.44,260.0,20.32,13.53,47.59359,-54.27349
2024-03-23 17:04:00+00:00,256.0,9.62,256.0,9.91,13.53,47.59359,-54.27349
2024-03-23 17:14:01+00:00,253.0,9.85,254.0,9.86,13.68,47.59359,-54.27349
2024-03-23 17:24:01+00:00,262.0,14.69,268.0,15.9,13.68,47.59359,-54.27349
2024-03-23 17:34:01+00:00,315.0,0.01,255.0,0.0,13.68,47.59359,-54.27349
2024-03-23 17:44:01+00:00,249.0,9.87,246.0,10.41,13.68,47.59359,-54.27349
2024-03-23 17:54:01+00:00,247.0,10.08,237.0,11.13,13.68,47.59359,-54.27349
2024-03-23 18:04:01+00:00,246.0,9.6,242.0,10.89,13.68,47.59359,-54.27349
2024-03-23 18:14:00+00:00,315.0,0.01,263.0,0.0,13.6,47.59359,-54.27349
2024-03-23 18:24:00+00:00,258.0,14.55,258.0,15.25,13.6,47.59359,-54.27349
2024-03-23 18:34:00+00:00,252.0,9.23,250.0,10.03,13.6,47.59359,-54.27349
2024-03-23 18:44:00+00:00,254.0,9.96,255.0,13.28,13.6,47.59359,-54.27349
2024-03-23 18:54:00+00:00,315.0,0.01,259.0,0.0,13.6,47.59359,-54.27349
2024-03-23 19:04:00+00:00,264.0,8.81,261.0,9.7,13.6,47.59359,-54.27349
2024-03-23 19:14:00+00:00,248.0,10.01,244.0,10.56,13.53,47.59359,-54.27349
2024-03-23 19:24:00+00:00,259.0,9.45,258.0,9.86,13.53,47.59359,-54.27349
2024-03-23 19:34:00+00:00,255.0,9.68,256.0,9.7,13.53,47.59359,-54.27349
2024-03-23 19:44:00+00:00,315.0,0.01,241.0,0.0,13.53,47.59359,-54.27349
2024-03-23 19:54:00+00:00,261.0,8.81,253.0,10.21,13.53,47.59359,-54.27349
2024-03-23 20:04:00+00:00,247.0,10.02,240.0,10.88,13.53,47.59359,-54.27349
2024-03-23 20:14:00+00:00,258.0,9.37,256.0,10.04,13.44,47.59359,-54.27349
2024-03-23 20:24:00+00:00,244.0,8.34,248.0,9.88,13.44,47.59359,-54.27349
2024-03-23 20:34:00+00:00,237.0,7.56,244.0,10.37,13.44,47.59359,-54.27349
2024-03-23 20:44:00+00:00,242.0,8.36,240.0,9.72,13.44,47.59359,-54.27349
2024-03-23 20:54:00+00:00,240.0,9.53,237.0,10.19,13.44,47.59359,-54.27349
2024-03-23 21:04:00+00:00,240.0,10.26,243.0,12.69,13.44,47.59359,-54.27349
2024-03-23 21:14:00+00:00,241.0,10.7,238.0,11.37,13.21,47.59359,-54.27349
2024-03-23 21:24:00+00:00,243.0,10.4,241.0,11.06,13.21,47.59359,-54.27349
2024-03-23 21:34:00+00:00,242.0,10.45,247.0,11.31,13.21,47.59359,-54.27349
2024-03-23 21:44:00+00:00,244.0,10.61,245.0,11.19,13.21,47.59359,-54.27349
2024-03-23 21:54:00+00:00,249.0,10.2,242.0,10.97,13.21,47.59359,-54.27349
2024-03-23 22:04:00+00:00,247.0,10.23,241.0,11.12,13.21,47.59359,-54.27349
2024-03-23 22:14:00+00:00,249.0,9.53,248.0,10.61,12.57,47.59359,-54.27349
2024-03-23 22:24:00+00:00,248.0,9.97,253.0,11.09,12.57,47.59359,-54.27349
2024-03-23 22:34:00+00:00,255.0,9.75,252.0,10.35,12.57,47.59359,-54.27349
2024-03-23 22:44:00+00:00,315.0,0.01,250.0,0.0,12.57,47.59359,-54.27349
2024-03-23 22:54:00+00:00,250.0,10.79,251.0,11.98,12.57,47.59359,-54.27349
2024-03-23 23:04:00+00:00,251.0,10.36,256.0,12.85,12.57,47.59359,-54.27349
2024-03-23 23:14:00+00:00,252.0,9.75,257.0,12.46,12.25,47.59359,-54.27349
2024-03-23 23:24:00+00:00,264.0,9.2,264.0,9.57,12.25,47.59359,-54.27349
2024-03-23 23:34:00+00:00,250.0,10.29,260.0,13.79,12.25,47.59359,-54.27349
2024-03-23 23:44:00+00:00,254.0,10.33,255.0,10.71,12.25,47.59359,-54.27349
2024-03-23 23:54:00+00:00,257.0,9.42,259.0,11.95,12.25,47.59359,-54.27349
